Location: El Centro
(32.7920°N, 115.5620°W)
Time: 05:04:30
(UTC-07:00)

Hamsat - Visible Passes

Search period start: 01 October 2016 00:00
Search period end: 11 October 2016 00:00
Orbit: 587 x 618 km, 97.6° (Epoch: 30 September)

Date Brightness Start Highest point End Pass type
(mag) Time Alt. Az. Time Alt. Az. Time Alt. Az.
01 Oct ? 05:20:29 10° N 05:24:45 62° WNW 05:28:56 10° SSW visible
02 Oct ? 03:59:06 10° ENE 04:00:42 12° E 04:02:18 10° ESE visible
02 Oct ? 05:32:35 10° N 05:36:40 43° WNW 05:40:42 10° SW visible
03 Oct ? 04:10:00 10° NE 04:12:46 17° E 04:15:31 10° SE visible
03 Oct ? 05:44:46 10° N 05:48:34 31° WNW 05:52:19 10° SW visible
04 Oct ? 04:21:22 10° NE 04:24:48 23° E 04:28:12 10° SSE visible
04 Oct ? 05:57:05 10° NNW 06:00:26 23° WNW 06:03:46 10° WSW visible
05 Oct ? 04:32:58 10° NNE 04:36:49 32° E 04:40:37 10° SSE visible
05 Oct ? 06:09:35 10° NNW 06:12:18 17° WNW 06:14:59 10° WSW visible
06 Oct ? 04:44:41 10° NNE 04:48:49 45° E 04:52:52 10° S visible
07 Oct ? 04:56:32 10° NNE 05:00:47 66° E 05:04:58 10° S visible
08 Oct ? 05:08:27 10° N 05:12:44 87° WNW 05:16:57 10° SSW visible
09 Oct ? 05:20:27 10° N 05:24:40 60° WNW 05:28:49 10° SSW visible
10 Oct ? 03:59:00 10° ENE 04:00:37 12° E 04:02:13 10° ESE visible
10 Oct ? 05:32:32 10° N 05:36:34 42° WNW 05:40:33 10° SW visible
